Temp
8 8 8 8 8 8 8 8 8 8 8 8 8 8 8 8 8 9 9 9 9 9 9 10 10 10 10 10 10 9 9 9 9 9 8 8 8 8 8 8 8 9
7 7 7 7 7 7 7 7 7 7 8 8 8 8 8 8 8 8 9 9 9 9 9 9 9 9 9 9 9 9 9 9 9 9 9 8 8 8 8 8 8 8
7 7 7 7 7 7 7 7 7 8 7 7 8 8 8 8 8 8 9 9 9 8 8 9 9 9 9 9 9 9 9 9 9 9 9 9 8 8 8 8 8 8
7 7 7 7 7 7 7 8 8 8 7 7 7 7 7 8 8 8 8 8 8 8 8 8 8 8 8 8 8 8 8 8 8 9 9 9 8 8 8 8 8 8
7 7 7 7 7 7 8 8 7 7 7 7 7 7 7 7 7 8 8 8 8 8 8 8 8 8 8 8 8 8 8 8 8 8 8 8 8 8 8 8 8 8
7 7 7 7 7 7 7 7 7 7 7 7 7 7 7 7 7 7 7 7 7 7 8 8 8 7 7 7 7 8 8 8 8 8 8 8 8 8 8 7 7 7
6 6 7 7 7 7 7 7 7 7 7 7 7 7 7 7 7 7 7 7 7 7 7 7 7 7 7 7 7 7 7 7 8 8 7 7 8 8 8 7 7 7
6 6 6 7 7 7 7 7 7 7 7 7 7 7 7 7 7 7 6 6 6 6 6 6 6 7 7 7 7 6 6 6 7 7 7 7 7 7 7 7 7 7
6 6 6 6 6 6 6 6 6 6 6 6 6 6 6 6 6 6 6 6 6 6 5 5 5 6 6 6 6 6 6 6 6 6 7 7 7 7 7 7 7 7
6 6 6 6 6 6 6 6 6 6 6 6 6 6 6 6 6 6 6 6 5 5 5 5 5 5 5 5 5 5 5 5 5 5 6 6 6 6 6 6 6 7
6 6 6 6 6 6 6 6 6 6 6 6 6 6 6 6 6 6 5 5 5 5 5 5 4 4 4 4 4 5 5 5 5 5 5 5 5 5 5 6 6 6
5 5 5 5 5 5 5 5 5 6 6 6 6 6 6 5 5 5 5 5 5 5 4 4 4 4 4 4 4 4 4 4 4 4 5 5 5 5 5 5 5 5
5 5 5 5 5 5 5 5 5 5 5 5 5 5 5 5 5 5 5 5 5 4 4 4 4 4 4 3 4 4 4 4 4 4 4 4 4 4 5 5 5 5
5 4 4 4 4 4 4 5 5 5 5 5 5 5 5 5 5 5 5 5 5 5 4 4 4 3 3 3 3 3 4 4 4 4 4 4 4 4 4 4 5 5
4 4 4 4 4 4 4 5 5 5 5 5 5 5 5 5 6 6 5 5 5 5 4 4 4 3 3 3 3 3 4 4 4 4 4 4 4 4 4 4 4 5
5 4 4 4 4 5 5 5 5 5 5 5 5 5 5 5 5 5 5 5 5 5 5 4 4 3 3 3 3 3 4 4 4 4 4 4 4 4 4 4 4 4
5 5 5 5 5 5 5 5 4 4 4 4 4 4 4 5 5 5 5 5 4 4 4 4 4 4 3 3 3 3 4 4 4 4 4 4 4 4 4 4 4 4
5 5 5 5 5 5 5 5 4 4 4 4 4 4 4 4 4 4 4 4 4 4 4 4 3 3 3 3 3 3 3 3 3 4 4 4 4 4 4 4 4 4
5 5 5 5 5 5 5 5 4 4 4 4 4 4 4 4 4 3 3 3 3 3 3 3 3 3 3 3 3 3 3 3 3 3 3 3 3 3 3 4 4 4
5 5 5 4 4 4 4 4 4 4 4 4 4 4 3 3 3 3 3 3 3 3 3 2 2 2 2 2 2 2 3 3 3 3 3 3 3 3 3 3 3 3
4 4 4 4 4 4 4 4 4 4 4 3 3 3 3 3 3 3 3 3 3 3 3 2 2 2 2 2 2 2 2 2 2 2 2 2 2 3 3 3 3 3
4 4 4 4 4 4 4 4 3 3 3 3 3 3 3 3 3 3 2 2 2 3 3 3 3 2 2 3 3 3 3 3 2 2 2 2 3 3 3 3 3 3
4 4 4 4 3 3 3 3 3 3 3 3 3 3 3 3 3 3 2 2 2 2 3 3 3 3 3 3 3 3 3 3 3 3 3 3 3 3 3 3 3 3
3 3 3 3 3 3 3 3 3 3 3 3 3 3 3 3 3 2 2 2 2 3 3 3 3 3 3 3 4 4 4 4 4 3 3 3 3 3 3 3 3 3
3 3 3 3 3 3 3 3 3 3 3 3 3 3 3 2 2 2 2 2 2 3 3 2 2 3 3 3 3 3 4 4 4 4 4 3 3 3 3 3 3 3
3 3 3 3 3 3 3 3 3 3 2 2 2 2 2 2 2 2 2 2 2 2 2 1 1 1 2 2 2 3 3 3 4 4 4 4 3 3 3 3 2 3
Height
3187 3185 3184 3182 3181 3180 3178 3177 3176 3174 3173 3171 3170 3168 3167 3165 3163 3162 3161 3160 3158 3157 3156 3155 3153 3152 3150 3149 3148 3147 3146 3145 3145 3144 3143 3142 3141 3140 3139 3138 3139 3139
3186 3184 3183 3181 3180 3178 3176 3175 3173 3172 3170 3169 3167 3166 3164 3162 3161 3159 3158 3157 3155 3154 3152 3151 3150 3149 3147 3146 3145 3144 3143 3143 3142 3141 3141 3140 3139 3138 3137 3136 3137 3137
3185 3183 3181 3180 3178 3176 3174 3173 3171 3169 3167 3165 3164 3162 3161 3159 3158 3156 3155 3154 3152 3151 3149 3148 3147 3146 3145 3144 3142 3141 3140 3139 3139 3139 3138 3137 3136 3136 3135 3135 3135 3134
3183 3182 3180 3178 3176 3174 3172 3170 3168 3166 3164 3162 3161 3159 3157 3156 3154 3153 3152 3150 3149 3148 3146 3145 3143 3142 3142 3141 3140 3139 3137 3136 3136 3136 3135 3135 3134 3134 3133 3133 3132 3132
3181 3180 3178 3175 3173 3171 3170 3167 3165 3163 3161 3159 3157 3156 3154 3152 3150 3149 3148 3147 3145 3144 3143 3142 3140 3139 3138 3137 3137 3136 3135 3134 3133 3133 3133 3132 3132 3131 3131 3130 3130 3129
3179 3177 3175 3173 3171 3169 3167 3165 3162 3160 3158 3156 3154 3152 3150 3148 3147 3145 3144 3143 3142 3140 3139 3138 3137 3136 3135 3134 3133 3132 3132 3131 3131 3130 3130 3129 3129 3129 3129 3128 3128 3127
3177 3174 3172 3170 3168 3166 3164 3162 3159 3157 3154 3152 3150 3148 3147 3145 3143 3142 3140 3139 3137 3136 3135 3134 3133 3132 3131 3130 3130 3129 3129 3128 3128 3127 3127 3126 3125 3125 3125 3125 3125 3125
3174 3172 3170 3168 3166 3163 3161 3159 3157 3154 3151 3149 3147 3145 3143 3141 3139 3138 3137 3135 3134 3133 3131 3130 3129 3128 3128 3127 3127 3126 3126 3125 3125 3124 3124 3123 3122 3122 3122 3122 3122 3121
3171 3169 3167 3164 3162 3160 3158 3155 3153 3151 3148 3146 3144 3141 3139 3138 3136 3134 3133 3132 3130 3129 3128 3126 3125 3125 3125 3124 3124 3124 3123 3122 3122 3121 3121 3120 3119 3119 3119 3118 3118 3118
3167 3165 3163 3160 3158 3156 3154 3152 3149 3147 3145 3143 3141 3138 3136 3134 3133 3131 3129 3128 3127 3125 3124 3124 3123 3122 3122 3121 3120 3120 3120 3120 3119 3119 3118 3117 3116 3116 3115 3115 3115 3115
3164 3162 3159 3157 3155 3153 3150 3148 3145 3143 3141 3139 3137 3135 3133 3132 3130 3128 3126 3125 3124 3122 3122 3121 3121 3120 3119 3118 3117 3117 3117 3117 3116 3116 3115 3114 3114 3113 3112 3112 3112 3112
3161 3158 3156 3154 3152 3149 3147 3144 3142 3140 3138 3136 3134 3132 3130 3129 3127 3125 3124 3122 3121 3120 3119 3119 3118 3117 3116 3115 3115 3115 3114 3114 3113 3113 3112 3112 3111 3110 3110 3109 3109 3109
3157 3155 3152 3150 3148 3146 3143 3141 3139 3137 3135 3133 3131 3129 3128 3126 3124 3123 3121 3120 3119 3118 3117 3116 3115 3114 3113 3113 3112 3112 3112 3111 3111 3110 3110 3109 3109 3109 3108 3107 3107 3106
3152 3150 3148 3146 3144 3142 3140 3138 3136 3134 3132 3130 3128 3127 3125 3123 3122 3120 3119 3117 3116 3115 3114 3113 3112 3111 3111 3110 3109 3109 3109 3108 3108 3107 3107 3107 3107 3106 3105 3105 3104 3103
3148 3146 3143 3142 3140 3138 3136 3135 3133 3131 3129 3127 3125 3124 3122 3120 3119 3117 3116 3115 3113 3112 3111 3110 3109 3108 3108 3107 3107 3106 3106 3105 3105 3104 3104 3104 3104 3103 3102 3102 3101 3100
3144 3142 3140 3138 3136 3134 3132 3131 3130 3128 3126 3125 3123 3121 3119 3118 3116 3115 3113 3111 3110 3109 3108 3107 3106 3105 3104 3104 3104 3103 3103 3102 3102 3101 3100 3100 3100 3100 3099 3099 3098 3097
3142 3140 3137 3135 3133 3131 3129 3128 3126 3125 3123 3121 3120 3118 3117 3115 3113 3112 3110 3109 3107 3106 3104 3103 3103 3102 3101 3101 3100 3100 3099 3099 3098 3097 3097 3096 3096 3096 3096 3095 3094 3093
3140 3138 3136 3133 3131 3129 3127 3125 3124 3122 3120 3119 3117 3116 3114 3112 3111 3109 3107 3106 3105 3103 3102 3101 3100 3099 3098 3098 3097 3097 3096 3095 3094 3094 3093 3093 3092 3092 3092 3091 3091 3090
3138 3136 3134 3132 3130 3127 3125 3124 3122 3120 3118 3117 3115 3113 3112 3110 3108 3107 3105 3103 3102 3100 3100 3099 3098 3097 3096 3095 3094 3093 3093 3092 3091 3091 3090 3089 3088 3088 3088 3087 3087 3086
3136 3134 3132 3130 3128 3126 3124 3122 3121 3119 3117 3115 3113 3111 3109 3108 3106 3104 3103 3101 3099 3098 3097 3097 3096 3095 3094 3093 3091 3090 3090 3089 3088 3087 3087 3086 3085 3084 3084 3084 3083 3083
3134 3132 3130 3128 3126 3124 3123 3121 3119 3117 3115 3113 3111 3109 3107 3106 3104 3102 3100 3098 3096 3095 3095 3094 3093 3092 3091 3089 3088 3088 3087 3085 3084 3084 3083 3082 3081 3080 3080 3080 3079 3079
3132 3130 3128 3127 3125 3123 3121 3119 3118 3115 3113 3111 3109 3107 3105 3104 3102 3100 3098 3096 3094 3093 3092 3091 3090 3089 3087 3086 3085 3084 3083 3082 3081 3080 3079 3079 3078 3077 3076 3076 3075 3075
3130 3128 3127 3125 3123 3121 3119 3118 3116 3114 3112 3110 3108 3106 3104 3102 3100 3098 3096 3094 3092 3090 3089 3088 3087 3086 3084 3082 3081 3080 3079 3078 3077 3077 3076 3075 3075 3074 3073 3072 3072 3071
3128 3126 3125 3123 3121 3120 3118 3116 3114 3112 3110 3108 3107 3104 3102 3100 3098 3096 3094 3092 3090 3088 3087 3085 3083 3082 3080 3078 3077 3076 3075 3074 3074 3073 3072 3072 3071 3070 3069 3068 3068 3067
3127 3125 3123 3121 3120 3118 3117 3115 3113 3111 3109 3107 3105 3103 3101 3098 3097 3095 3092 3090 3088 3086 3084 3082 3080 3079 3077 3075 3073 3072 3070 3070 3070 3070 3069 3068 3067 3066 3065 3064 3063 3063
3125 3124 3122 3120 3118 3117 3115 3113 3111 3109 3107 3105 3104 3102 3100 3098 3095 3093 3091 3089 3086 3084 3082 3080 3078 3076 3074 3072 3070 3068 3067 3066 3066 3066 3065 3065 3064 3063 3062 3061 3060 3059
Wind_Speed
17 18 18 18 19 20 21 21 21 21 21 21 20 20 20 20 21 21 21 21 21 21 20 19 19 19 20 19 19 18 18 17 18 18 16 17 17 14 14 14 11 10
18 18 19 20 21 22 23 23 23 23 23 23 23 23 23 23 23 23 22 22 22 22 22 21 21 20 20 20 20 19 19 18 18 18 18 18 19 17 16 15 12 11
18 19 20 21 22 23 24 25 26 26 26 26 25 25 25 24 24 24 24 23 23 23 23 23 22 21 20 20 20 21 20 20 19 18 19 19 19 19 18 17 15 13
19 20 21 23 23 25 26 27 28 28 27 26 26 26 26 25 25 24 24 23 23 24 24 24 23 23 21 20 19 20 21 21 20 19 19 19 20 20 19 18 17 16
21 22 23 24 25 27 28 29 29 28 28 27 26 26 26 26 25 24 23 23 24 24 24 24 24 23 23 22 20 20 20 21 21 20 19 19 20 20 20 19 18 18
23 24 25 25 27 28 29 29 29 29 28 28 27 27 27 27 26 25 24 24 24 24 24 25 25 24 24 23 22 21 20 20 21 20 19 20 20 21 21 20 19 19
24 25 26 27 29 30 30 29 29 29 29 29 29 29 28 28 27 26 25 24 24 24 24 24 25 25 24 24 23 22 21 20 21 21 20 20 20 21 22 23 23 23
24 26 27 29 31 31 31 30 29 29 29 29 29 30 29 29 28 27 26 25 24 24 24 24 24 24 24 24 22 22 21 21 20 20 20 20 20 20 21 23 25 25
26 28 29 31 31 31 31 30 29 28 28 28 28 29 29 29 29 28 27 26 25 24 23 23 23 23 22 23 22 22 21 21 20 20 21 21 21 21 20 20 22 24
29 31 31 32 32 31 30 30 29 28 27 27 27 27 28 28 28 28 27 26 25 25 24 23 22 22 22 22 22 21 20 20 20 19 20 21 21 22 21 19 20 21
31 32 32 32 31 30 30 29 28 27 27 27 26 26 26 26 26 26 27 26 26 25 24 23 22 22 22 22 22 21 20 20 20 20 20 20 21 22 21 20 19 19
31 31 30 30 29 28 27 26 26 25 25 25 25 25 25 24 24 24 25 26 26 25 24 23 23 23 23 23 22 22 21 21 21 21 20 20 20 20 21 21 21 20
31 30 30 29 27 25 24 23 23 23 23 23 23 23 23 23 24 24 25 25 25 25 24 24 24 23 23 23 22 22 21 22 22 21 21 20 19 19 21 22 23 23
31 30 29 27 26 24 23 22 22 22 22 22 23 23 23 24 24 25 25 26 25 25 25 25 25 24 23 23 23 22 22 22 22 22 21 21 20 20 21 22 23 24
32 30 29 28 26 24 23 22 21 21 21 22 22 22 23 24 25 25 26 26 26 26 26 27 27 26 25 25 24 24 23 23 23 23 23 22 21 21 22 23 24 25
32 31 30 29 28 26 25 23 22 21 20 20 20 20 21 22 22 24 25 25 26 27 27 27 28 27 27 27 26 25 24 23 24 25 25 24 23 22 23 23 24 24
31 30 30 29 28 27 26 25 23 22 21 20 20 19 20 20 20 20 21 22 23 24 25 26 27 27 27 27 27 26 25 25 24 24 25 25 25 23 22 22 22 23
28 28 27 26 26 25 25 24 23 22 22 21 21 20 20 20 20 19 19 19 21 22 23 24 23 23 24 24 25 25 25 26 25 25 25 26 26 25 23 22 21 21
26 25 25 24 24 24 24 24 23 23 22 22 22 21 21 21 20 20 19 20 21 21 21 22 22 22 22 23 24 24 25 26 26 26 25 26 26 25 23 22 21 20
23 23 23 23 23 23 23 23 22 22 22 22 21 21 21 21 21 21 20 21 22 23 22 22 22 23 23 23 24 25 25 26 27 26 26 26 26 25 23 23 22 22
22 22 22 22 22 22 22 22 21 20 21 21 21 21 22 22 22 22 22 23 24 24 23 23 23 23 23 24 25 25 25 26 27 26 25 25 25 24 23 23 23 24
21 21 21 21 21 20 20 19 19 19 19 20 20 21 21 22 22 22 23 24 25 25 25 24 23 23 24 25 24 24 24 24 26 27 27 27 26 24 23 23 23 24
20 19 19 19 19 18 18 18 18 18 18 19 20 20 21 22 22 22 22 24 25 25 25 25 25 24 25 25 24 23 22 22 22 23 25 27 27 27 26 25 25 25
18 18 18 18 17 17 18 18 18 18 18 19 19 20 21 22 22 22 22 23 24 25 25 25 24 24 24 25 24 24 23 21 20 19 20 21 23 25 27 27 27 26
16 17 17 18 18 18 18 18 18 18 18 18 19 19 20 20 21 21 22 23 24 24 24 24 23 23 23 24 24 24 23 22 20 18 18 17 18 19 21 23 23 23
16 17 17 18 19 18 18 18 17 17 18 18 18 19 19 19 20 21 22 23 23 24 23 23 23 23 23 23 23 23 23 22 20 18 16 16 16 16 16 17 18 19
Wind_Direction
317 319 321 323 324 324 324 323 322 320 317 314 310 307 304 302 302 304 304 303 301 299 296 295 293 293 292 289 286 282 279 274 270 269 270 272 272 275 279 280 278 276
314 317 320 321 323 323 323 323 322 320 317 314 311 307 303 300 299 299 299 299 298 296 294 292 290 289 288 286 283 280 277 274 272 268 265 264 266 268 271 275 274 268
312 314 317 319 320 321 321 321 319 317 315 312 309 306 303 299 297 295 294 293 291 291 290 289 288 286 283 281 279 279 277 275 272 269 265 262 262 265 266 269 270 268
310 313 315 318 319 318 318 317 315 313 310 308 306 304 303 300 297 293 290 288 287 286 285 285 284 283 282 279 275 275 276 275 273 271 268 265 262 262 263 262 262 264
308 310 312 314 315 316 316 315 312 310 308 306 305 303 302 301 299 294 290 286 285 283 282 281 280 279 280 279 275 271 270 272 274 272 270 267 263 261 261 259 258 259
307 308 309 310 311 313 314 312 310 308 306 305 304 301 300 299 298 296 293 289 286 283 281 279 278 276 276 277 277 274 271 269 271 272 271 269 265 261 259 258 259 261
307 307 308 309 310 311 311 310 308 306 304 303 302 301 299 297 296 295 294 292 288 285 282 280 277 275 273 273 275 276 275 272 269 270 270 269 267 263 260 258 258 262
306 306 308 309 309 310 310 308 306 303 302 301 300 299 298 296 295 293 293 292 290 288 286 283 280 276 274 272 272 273 275 275 271 269 269 269 269 267 264 261 260 261
307 307 308 309 310 310 310 308 306 303 300 299 298 297 297 296 295 294 293 291 290 289 287 285 284 282 281 278 274 272 273 275 273 270 269 269 271 271 269 266 263 260
310 310 311 311 311 311 309 307 305 302 300 299 297 296 295 294 294 294 293 291 290 289 288 287 286 286 285 282 279 276 274 274 273 271 270 270 270 271 270 266 263 260
310 310 311 310 309 309 307 306 304 302 302 300 299 297 295 293 293 293 293 291 289 288 289 290 288 286 284 282 280 278 276 275 274 272 271 269 269 271 270 267 264 261
310 310 309 308 308 307 307 306 305 304 303 301 300 299 297 295 294 294 293 292 290 289 290 291 291 290 288 284 281 279 278 277 276 274 270 268 268 269 270 271 270 269
311 312 312 311 312 312 311 310 308 307 306 303 301 300 298 296 295 295 294 293 291 289 288 289 290 290 291 289 286 283 280 277 276 275 271 270 270 270 269 270 272 274
314 315 315 316 317 317 316 314 312 310 308 305 303 300 298 296 294 293 291 290 289 286 285 286 286 286 287 288 288 286 283 280 278 276 272 271 273 273 271 270 271 274
318 319 320 321 321 320 318 316 314 312 308 305 303 300 298 296 294 292 289 287 285 283 282 283 283 284 284 283 284 284 283 280 278 277 275 272 273 274 274 273 273 273
320 321 322 322 322 321 320 319 318 315 311 308 305 303 300 297 293 291 289 288 286 284 282 282 282 282 282 281 282 283 283 280 277 276 276 275 275 275 274 274 274 274
319 320 320 320 320 320 320 321 321 319 316 313 311 310 307 304 300 296 293 290 289 287 286 285 284 284 283 281 280 281 281 280 277 276 277 278 278 276 275 275 274 274
317 317 318 318 319 320 320 321 321 320 317 316 315 313 312 310 308 304 300 296 294 292 291 291 291 291 291 289 285 282 280 278 278 278 278 279 280 279 279 278 276 275
315 316 317 318 319 319 320 321 321 318 317 316 314 313 312 312 312 308 305 301 298 297 296 295 295 296 297 296 293 288 283 280 280 281 282 282 282 281 281 280 280 279
316 317 318 318 319 320 320 321 320 318 317 316 314 313 313 313 312 309 306 303 300 300 299 296 295 296 296 295 293 291 288 285 283 283 285 287 286 283 282 280 281 283
317 317 318 319 319 320 321 321 321 320 319 317 316 316 315 314 313 311 309 305 303 302 302 299 296 295 293 292 290 290 289 286 284 282 283 286 288 287 285 283 282 283
318 318 320 320 321 322 322 324 325 324 322 321 320 320 318 315 314 312 310 308 306 306 306 305 303 300 296 294 294 294 291 287 284 281 278 280 282 284 286 286 286 284
320 320 321 323 324 325 326 328 330 328 326 325 324 322 319 316 316 315 313 312 312 313 313 312 310 307 303 301 299 297 294 291 287 283 279 277 277 278 280 282 284 284
321 322 324 325 327 329 330 331 331 329 328 327 326 324 321 320 321 322 322 320 319 320 319 318 316 313 310 307 304 300 297 295 292 289 286 282 279 277 276 277 278 278
322 325 328 328 329 332 332 331 331 332 333 332 331 329 327 327 328 329 328 326 325 324 323 322 322 322 319 316 312 307 303 299 296 293 290 288 286 282 278 275 274 273
325 329 330 328 330 333 333 333 334 336 337 336 334 333 333 333 333 332 330 329 328 328 329 330 333 333 332 328 325 321 316 310 304 299 294 291 290 289 284 277 273 272